sat.trackr.live / text

‹ back to catalog

STARLINK-37972

NORAD 69708 · 2026-147E

PAYLOAD ACTIVE UNKNOWN

§ Identity

Operator
Country
US
Launch date
2026-06-28
Launch site
AFWTR
Launch vehicle
Mass (kg)
RCS (m²)

Purposes: comms

External: N2YO · Heavens-Above · Gunter

§ Orbital elements

Epoch: 2026-09-20T03:09:05.522688Z

Period
93.91 min
Inclination
97.2798°
Eccentricity
0.0000481
Mean motion
15.33460669 rev/d
Perigee alt
465.2 km
Apogee alt
465.8 km
Semi-major
6,843.6 km
B*
4.5990e-4
RAAN
299.4429°
Arg perigee
25.6057°
Mean anomaly
334.5210°
Rev number
1,417

§ Raw data

STARLINK-379721 69708U 26147E   26263.13131392  .00014809  00000+0  45990-3 0  99932 69708  97.2798 299.4429 0000481  25.6057 334.5210 15.33460669 14175

JSON: /api/v1/satellites/69708 · /tle

For live sub-satellite position, see the globe view (requires WebGL).

§ Visibility from observer

Set your observer location to see the next 7 days of passes ≥ 10°. The values pass through the URL so the page stays shareable.

No JS? Fill the form by hand. The geolocation button needs JavaScript.